IRIDIUM 106 1 41917U 17003A 26126.93206369 -.00000005 00000+0 -88684-5 0 9993 2 41917 86.3933 105.8049 0002387 79.2012 280.9452 14.34217295487292 IRIDIUM 103 1 41918U 17003B 26126.91937874 -.00000004 00000+0 -84823-5 0 9994 2 41918 86.3934 105.7101 0002346 93.6786 266.4678 14.34217252487310 IRIDIUM 109 1 41919U 17003C 26126.92572073 .00000217 00000+0 70347-4 0 9991 2 41919 86.3935 105.7664 0002230 88.6129 271.5323 14.34218003487288 IRIDIUM 102 1 41920U 17003D 26126.89400679 .00000197 00000+0 63236-4 0 9997 2 41920 86.3929 105.7038 0002250 87.4708 272.6745 14.34217443487366 IRIDIUM 105 1 41921U 17003E 26126.92237837 .00000260 00000+0 85836-4 0 9997 2 41921 86.3955 74.1188 0002224 93.3667 266.7783 14.34211576489226 IRIDIUM 104 1 41922U 17003F 26126.97645827 .00000150 00000+0 46513-4 0 9992 2 41922 86.3933 105.7113 0002305 95.4306 264.7153 14.34216754487360 IRIDIUM 114 1 41923U 17003G 26126.98280411 .00000239 00000+0 78449-4 0 9999 2 41923 86.3934 105.6922 0002355 92.2362 267.9104 14.34218400487340 IRIDIUM 108 1 41924U 17003H 26126.94132501 .00000048 00000+0 10040-4 0 9993 2 41924 86.3950 74.0036 0002169 84.0108 276.1335 14.34217828489190 IRIDIUM 112 1 41925U 17003J 26126.97011707 .00000201 00000+0 64601-4 0 9994 2 41925 86.3928 105.5414 0002264 90.3635 269.7820 14.34217471487365 IRIDIUM 111 1 41926U 17003K 26126.95743209 -.00000120 00000+0 -49943-4 0 9996 2 41926 86.3932 105.6165 0002259 88.5339 271.6116 14.34216555487349 IRIDIUM 113 1 42803U 17039A 26126.30948001 .00000136 00000+0 41602-4 0 9995 2 42803 86.3976 339.6910 0002190 92.4030 267.7417 14.34216740465189 IRIDIUM 123 1 42804U 17039B 26126.76957101 .00000027 00000+0 25518-5 0 9995 2 42804 86.4007 10.9484 0002328 85.2817 274.8645 14.34217864464018 IRIDIUM 120 1 42805U 17039C 26126.93105533 .00000008 00000+0 -42241-5 0 9991 2 42805 86.3964 339.2189 0002031 82.6931 277.4496 14.34217494465268 IRIDIUM 115 1 42806U 17039D 26126.52006792 .00000309 00000+0 85868-4 0 9998 2 42806 86.4502 339.5140 0002433 83.5572 276.5906 14.43282388468257 IRIDIUM 118 1 42807U 17039E 26126.66174687 .00000064 00000+0 15842-4 0 9996 2 42807 86.4004 10.9917 0002205 86.4263 273.7185 14.34217742463999 IRIDIUM 117 1 42808U 17039F 26126.75054348 .00000013 00000+0 -25571-5 0 9994 2 42808 86.4001 10.9123 0002189 85.5014 274.6432 14.34217589464031 IRIDIUM 126 1 42809U 17039G 26126.77591402 .00000002 00000+0 -65192-5 0 9995 2 42809 86.4002 10.9521 0002166 88.9328 271.2116 14.34217557464010 IRIDIUM 124 1 42810U 17039H 26126.93922328 .00000094 00000+0 21931-4 0 9992 2 42810 86.4454 307.6179 0002237 89.8381 270.3076 14.43283201469161 IRIDIUM 128 1 42811U 17039J 26126.83642068 .00000259 00000+0 85380-4 0 9993 2 42811 86.3993 42.4312 0002338 79.4884 280.6575 14.34218240464059 IRIDIUM 121 1 42812U 17039K 26126.37632866 .00000243 00000+0 79854-4 0 9990 2 42812 86.4005 11.1468 0002204 84.1165 276.0282 14.34216228463830 IRIDIUM 133 1 42955U 17061A 26126.79836476 .00000042 00000+0 80924-5 0 9990 2 42955 86.3995 42.5638 0002272 84.7945 275.3510 14.34217936448846 IRIDIUM 100 1 42956U 17061B 26126.79202226 .00000031 00000+0 39045-5 0 9997 2 42956 86.3991 42.4861 0002254 83.9952 276.1501 14.34217768448841 IRIDIUM 122 1 42957U 17061C 26126.83007797 .00000017 00000+0 -10297-5 0 9992 2 42957 86.3992 42.4703 0002183 85.7415 274.4030 14.34217683448858 IRIDIUM 129 1 42958U 17061D 26126.99498477 .00000030 00000+0 37883-5 0 9993 2 42958 86.3992 42.4679 0002057 90.9512 269.1919 14.34217794448891 IRIDIUM 119 1 42959U 17061E 26126.82373522 .00000031 00000+0 41725-5 0 9990 2 42959 86.3995 42.5353 0002259 87.6956 272.4499 14.34217851448887 IRIDIUM 107 1 42960U 17061F 26126.84276350 .00000032 00000+0 45203-5 0 9991 2 42960 86.3993 42.5482 0002486 84.0688 276.0791 14.34217820448897 IRIDIUM 132 1 42961U 17061G 26126.84910501 .00000051 00000+0 11199-4 0 9992 2 42961 86.3992 42.5253 0002271 84.8445 275.3010 14.34218110448893 IRIDIUM 136 1 42962U 17061H 26126.81104113 .00000287 00000+0 95535-4 0 9991 2 42962 86.3995 42.5477 0002336 85.9191 274.2272 14.34221517448902 IRIDIUM 139 1 42963U 17061J 26126.81739292 .00000234 00000+0 76346-4 0 9995 2 42963 86.3995 42.6064 0002313 82.0359 278.1100 14.34217609448916 IRIDIUM 125 1 42964U 17061K 26126.80470861 -.00000048 00000+0 -24137-4 0 9995 2 42964 86.3995 42.6719 0002527 93.1426 267.0059 14.34217174448927 IRIDIUM 135 1 43070U 17083A 26126.70906432 .00000014 00000+0 -19613-5 0 9991 2 43070 86.3972 339.3634 0002167 87.1175 273.0269 14.34217774438203 IRIDIUM 138 1 43071U 17083B 26126.94374074 .00000003 00000+0 -58399-5 0 9991 2 43071 86.3981 338.9542 0002085 95.7032 264.4401 14.34217470438220 IRIDIUM 116 1 43072U 17083C 26126.91204314 .00000220 00000+0 71520-4 0 9998 2 43072 86.3971 339.2650 0002197 77.9988 282.1454 14.34220052438258 IRIDIUM 130 1 43073U 17083D 26126.60124064 .00000040 00000+0 73147-5 0 9996 2 43073 86.3979 339.6660 0002346 83.0652 277.0811 14.34217924438157 IRIDIUM 151 1 43074U 17083E 26126.92471285 -.00000034 00000+0 -19166-4 0 9997 2 43074 86.3971 339.3164 0002008 85.4704 274.6721 14.34217219438223 IRIDIUM 134 1 43075U 17083F 26126.96276867 -.00000015 00000+0 -12335-4 0 9991 2 43075 86.3971 339.3078 0002153 85.6587 274.4855 14.34217342438199 IRIDIUM 137 1 43076U 17083G 26126.55684106 .00000033 00000+0 47677-5 0 9992 2 43076 86.3975 339.5697 0001834 76.0641 284.0759 14.34217930438208 IRIDIUM 141 1 43077U 17083H 26126.96911017 .00000096 00000+0 27335-4 0 9999 2 43077 86.3970 339.2303 0002117 89.9952 270.1487 14.34218177438262 IRIDIUM 153 1 43078U 17083J 26126.92128869 .00000028 00000+0 29691-5 0 9994 2 43078 86.3933 307.7358 0002268 94.8065 265.3390 14.34217859439366 IRIDIUM 131 1 43079U 17083K 26126.95642498 .00000034 00000+0 51615-5 0 9995 2 43079 86.3976 339.4188 0002082 88.5438 271.5996 14.34217900438193 IRIDIUM 144 1 43249U 18030A 26126.92763202 .00000063 00000+0 15449-4 0 9997 2 43249 86.3931 307.6632 0002164 86.5983 273.5460 14.34218541424227 IRIDIUM 149 1 43250U 18030B 26126.93397409 .00000064 00000+0 15799-4 0 9991 2 43250 86.3930 307.6280 0002123 92.2858 267.8581 14.34218620424247 IRIDIUM 157 1 43251U 18030C 26126.88323311 .00000029 00000+0 31371-5 0 9993 2 43251 86.3931 307.7014 0002147 89.5056 270.6386 14.34217817424219 IRIDIUM 140 1 43252U 18030D 26126.97203086 .00000154 00000+0 47967-4 0 9996 2 43252 86.3932 307.6768 0002213 89.7550 270.3900 14.34217682424287 IRIDIUM 145 1 43253U 18030E 26126.95934449 -.00000018 00000+0 -13353-4 0 9992 2 43253 86.3928 307.6546 0002086 81.2664 278.8768 14.34217411424216 IRIDIUM 146 1 43254U 18030F 26126.94031617 .00000016 00000+0 -11986-5 0 9995 2 43254 86.3931 307.6750 0002144 86.7612 273.3829 14.34217765424227 IRIDIUM 148 1 43255U 18030G 26126.90861821 .00000061 00000+0 14672-4 0 9993 2 43255 86.3932 307.7307 0002036 89.1146 271.0283 14.34218810424251 IRIDIUM 142 1 43256U 18030H 26126.94667543 .00000059 00000+0 13939-4 0 9995 2 43256 86.3929 307.6053 0002166 84.3457 275.7986 14.34218586424229 IRIDIUM 150 1 43257U 18030J 26126.91494661 .00000043 00000+0 82352-5 0 9991 2 43257 86.3928 307.7335 0002079 88.9461 271.1973 14.34217664424245 IRIDIUM 143 1 43258U 18030K 26126.96568591 .00000059 00000+0 14058-4 0 9995 2 43258 86.3936 307.8033 0002185 86.0874 274.0572 14.34218356424185 IRIDIUM 161 1 43478U 18047C 26126.91714490 .00000212 00000+0 57033-4 0 9994 2 43478 86.4452 105.7288 0002140 93.2468 266.8978 14.43280990419186 IRIDIUM 152 1 43479U 18047D 26126.93840541 .00000153 00000+0 47717-4 0 9996 2 43479 86.3927 105.5807 0002272 91.1501 268.9955 14.34217264416571 IRIDIUM 147 1 43480U 18047E 26126.94474569 .00000154 00000+0 47822-4 0 9990 2 43480 86.3928 105.5822 0002302 84.4272 275.7186 14.34216851416578 IRIDIUM 110 1 43481U 18047F 26126.95109088 .00000009 00000+0 -37393-5 0 9996 2 43481 86.3929 105.6704 0002031 97.8223 262.3204 14.34217352416562 IRIDIUM 162 1 43482U 18047G 26126.98017271 .00000277 00000+0 76316-4 0 9995 2 43482 86.4451 105.5939 0002483 89.4929 270.6556 14.43280844419183 IRIDIUM 160 1 43569U 18061A 26126.89692275 .00000237 00000+0 77735-4 0 9992 2 43569 86.3953 74.0579 0002172 86.9112 273.2333 14.34219658407450 IRIDIUM 166 1 43570U 18061B 26126.92229696 .00000152 00000+0 47064-4 0 9999 2 43570 86.3953 73.9982 0002276 82.2592 277.8863 14.34221945407487 IRIDIUM 158 1 43571U 18061C 26126.89058454 .00000056 00000+0 12925-4 0 9999 2 43571 86.3952 74.0215 0002359 87.7067 272.4399 14.34217884407445 IRIDIUM 165 1 43572U 18061D 26126.91595450 .00000012 00000+0 -27904-5 0 9992 2 43572 86.3956 74.0567 0002146 81.5266 278.6173 14.34217620407476 IRIDIUM 155 1 43573U 18061E 26126.87789963 .00000003 00000+0 -60729-5 0 9994 2 43573 86.3950 73.9435 0002289 85.3568 274.7889 14.34217547407433 IRIDIUM 154 1 43574U 18061F 26126.92864002 .00000039 00000+0 69936-5 0 9996 2 43574 86.3955 74.0538 0002201 81.3329 278.8116 14.34217643407491 IRIDIUM 163 1 43575U 18061G 26126.90961249 .00000078 00000+0 20668-4 0 9997 2 43575 86.3952 73.9783 0002267 88.3733 271.7723 14.34217561407469 IRIDIUM 156 1 43576U 18061H 26126.88423878 .00000159 00000+0 49596-4 0 9997 2 43576 86.3953 73.9962 0002409 83.5839 276.5631 14.34219373407455 IRIDIUM 164 1 43577U 18061J 26126.93498490 .00000211 00000+0 68358-4 0 9992 2 43577 86.3954 74.0147 0002203 80.5055 279.6389 14.34215087407501 IRIDIUM 159 1 43578U 18061K 26126.90326943 .00000008 00000+0 -42808-5 0 9991 2 43578 86.3952 73.9657 0002071 88.0882 272.0551 14.34217628407464 IRIDIUM 180 1 43922U 19002A 26126.76322775 .00000068 00000+0 17288-4 0 9991 2 43922 86.4004 10.9117 0002091 87.6152 272.5283 14.34218079383051 IRIDIUM 176 1 43923U 19002B 26126.63072508 .00000730 00000+0 11190-3 0 9995 2 43923 86.6122 10.9166 0002311 80.6325 279.5153 14.72255414393138 IRIDIUM 168 1 43924U 19002C 26126.82665380 .00000215 00000+0 69725-4 0 9999 2 43924 86.4008 10.9612 0002187 85.5122 274.6324 14.34218244383049 IRIDIUM 173 1 43925U 19002D 26126.95350663 .00000023 00000+0 11463-5 0 9993 2 43925 86.4004 10.7989 0002271 87.3900 272.7555 14.34217726383048 IRIDIUM 169 1 43926U 19002E 26126.79700239 .00000310 00000+0 94896-4 0 9993 2 43926 86.4249 42.4904 0002898 85.3948 274.7581 14.38610559384276 IRIDIUM 172 1 43927U 19002F 26126.73785686 .00000076 00000+0 20159-4 0 9997 2 43927 86.4004 10.8968 0002105 87.1281 273.0155 14.34217222383023 IRIDIUM 175 1 43928U 19002G 26126.96384157 .00000089 00000+0 20231-4 0 9996 2 43928 86.4484 307.7643 0003889 34.6189 325.5264 14.43592173393035 IRIDIUM 171 1 43929U 19002H 26126.23045066 .00000017 00000+0 -11614-5 0 9998 2 43929 86.4011 11.4098 0002114 81.7713 278.3723 14.34217692382944 IRIDIUM 170 1 43930U 19002J 26126.77283628 .00000728 00000+0 11159-3 0 9997 2 43930 86.6124 10.8599 0002290 87.7344 272.4135 14.72254069393162 IRIDIUM 167 1 43931U 19002K 26126.64271964 -.00000002 00000+0 -76832-5 0 9992 2 43931 86.4002 10.9582 0002310 78.4644 281.6811 14.34217570383001 IRIDIUM 181 1 56726U 23068S 26126.92479694 .00000244 00000+0 66434-4 0 9998 2 56726 86.4492 74.0349 0002075 84.6783 275.4655 14.43308783156487 IRIDIUM 177 1 56727U 23068T 26126.34196658 .00000965 00000+0 12339-3 0 9995 2 56727 86.1979 348.6699 0002418 92.5760 267.5738 14.80255779160179 IRIDIUM 174 1 56728U 23068U 26126.62453905 .00000424 00000+0 63346-4 0 9993 2 56728 86.6132 11.0651 0002508 89.2999 270.8505 14.72245715159900 IRIDIUM 178 1 56729U 23068V 26126.80429299 .00001028 00000+0 13185-3 0 9999 2 56729 86.6563 42.6475 0002352 82.7063 277.4426 14.80224540160246 IRIDIUM 179 1 56730U 23068W 26126.79892186 .00000966 00000+0 12374-3 0 9997 2 56730 86.6794 51.5064 0002654 80.5534 279.5988 14.80230399160246